Flag for Denmark Weather past 2 weeks in Kolding, Denmark

Now
39 °F

Clear.


Feels Like: 35 °F
Forecast: 37 / 47 °F
Wind: 6 mph from South

Location: Skrydstrup


UV Index: 3 (Moderate)

Visibility: 10 mi


Pressure: 30.27 "Hg

Humidity: 70%

Dew point: 30 °F

Location of KoldingLocation

Historic Weather in Kolding

°F

Kolding temperature yesterday

Maximum temperature yesterday: 54 °F (at 1:50 PM)
Minimum temperature yesterday: 25 °F (at 6:20 AM)
Average temperature yesterday: 42 °F

Past Weeks' High & Low Weather Summary

 TemperatureHumidityPressure
High57 °F (Apr 7, 5:50 PM)100% (Apr 5, 2:50 AM)30.45 "Hg (Apr 5, 2:50 AM)
Low25 °F (Apr 16, 6:20 AM)33% (Apr 16, 2:20 PM)29.56 "Hg (Apr 8, 6:20 AM)
Average46 °F81%29.94 "Hg
* Reported Apr 2 2:20 AM — Apr 17 2:20 AM, Kolding, Weather by CustomWeather, © 2014

Note: Actual official high and low records may vary slightly from our data, if they occured in-between our weather recording intervals... More about our weather records

Advertising

Historic Weather Conditions — Data for Previous 24 hours

 ConditionsComfort  
Time TempWeatherWind HumidityBarometerVisibility
2:20 AM
Apr 17
39 °FClear.7 mph75%30.27 "Hg10 mi
1:50 AM39 °FClear.6 mph75%30.27 "Hg10 mi
1:20 AM37 °FClear.6 mph81%30.30 "Hg10 mi
12:50 AM36 °FClear.5 mph81%30.30 "Hg10 mi
12:20 AM36 °FClear.5 mph81%30.30 "Hg10 mi
11:50 PM
Apr 16
36 °FClear.6 mph81%30.30 "Hg10 mi
11:20 PM37 °FClear.5 mph75%30.33 "Hg10 mi
10:50 PM37 °FClear.5 mph81%30.33 "Hg10 mi
10:20 PM37 °FClear.5 mph81%30.36 "Hg10 mi
9:50 PM41 °FClear.3 mph66%30.36 "Hg10 mi
9:20 PM43 °FSunny.3 mph61%30.36 "Hg10 mi
8:50 PM43 °FSunny.5 mph61%30.36 "Hg10 mi
8:21 PM45 °FSunny.6 mph61%30.36 "Hg10 mi
7:50 PM46 °FSunny.8 mph57%30.36 "Hg10 mi
7:20 PM48 °FSunny.9 mph54%30.36 "Hg10 mi
6:50 PM50 °FSunny.9 mph47%30.36 "Hg10 mi
6:20 PM52 °FSunny.12 mph44%30.36 "Hg10 mi
5:50 PM52 °FPassing clouds.10 mph41%30.39 "HgN/A
5:20 PM52 °FPassing clouds.10 mph44%30.39 "HgN/A
4:50 PM52 °FSunny.10 mph41%30.39 "Hg10 mi
4:20 PM52 °FPassing clouds.9 mph41%30.39 "HgN/A
3:50 PM54 °FPassing clouds.6 mph38%30.42 "HgN/A
3:20 PM54 °FPassing clouds.8 mph35%30.42 "HgN/A
2:50 PM54 °FPassing clouds.7 mph38%30.42 "HgN/A
2:20 PM54 °FPassing clouds.6 mph33%30.42 "HgN/A
1:50 PM54 °FPassing clouds.6 mph38%30.42 "HgN/A
1:20 PM52 °FPassing clouds.6 mph38%30.42 "HgN/A
12:50 PM52 °FSunny.5 mph38%30.45 "Hg10 mi
12:20 PM52 °FPassing clouds.6 mph38%30.45 "HgN/A
11:50 AM52 °FPassing clouds.6 mph41%30.45 "HgN/A
11:20 AM50 °FPassing clouds.6 mph43%30.45 "HgN/A
10:50 AM48 °FPassing clouds.6 mph40%30.45 "HgN/A
10:20 AM48 °FSunny.2 mph46%30.45 "Hg10 mi
9:50 AM46 °FSunny.2 mph46%30.45 "Hg10 mi
9:20 AM45 °FSunny.1 mph61%30.45 "Hg10 mi
8:50 AM39 °FSunny.1 mph75%30.45 "Hg10 mi
8:20 AM36 °FSunny.2 mph81%30.45 "Hg10 mi
7:50 AM34 °FSunny.5 mph81%30.45 "Hg10 mi
7:20 AM28 °FSunny.1 mph80%30.45 "Hg10 mi
6:50 AM27 °FClear.1 mph86%30.42 "Hg10 mi
6:20 AM25 °FClear.1 mph86%30.42 "Hg10 mi
5:50 AM27 °FClear.2 mph86%30.42 "Hg10 mi
5:20 AM27 °FClear.2 mph86%30.42 "Hg10 mi
4:50 AM27 °FClear.2 mph86%30.42 "Hg10 mi
4:20 AM28 °FClear.2 mph80%30.42 "Hg10 mi
3:50 AM28 °FClear.1 mph80%30.42 "Hg10 mi
3:20 AM28 °FClear.1 mph80%30.42 "Hg10 mi
Weather by CustomWeather, © 2014

See weather overview